AirNav   Air Wisconsin pilot careers
 
 1089 users online  

H92 Hominy Municipal Airport
Hominy, Oklahoma, USA

GOING TO HOMINY?


FAA INFORMATION EFFECTIVE 28 FEBRUARY 2019

Location

FAA Identifier: H92
Lat/Long: 36-26-33.9000N / 096-23-14.0000W
36-26.565000N / 096-23.233333W
36.4427500 / -96.3872222
(estimated)
Elevation: 825 ft. / 251 m (estimated)
Variation: 06E (1985)
From city: 2 miles N of HOMINY, OK
Time zone: UTC -6 (UTC -5 during Daylight Saving Time)
Zip code: 74035

Airport Operations

Airport use: Open to the public
Activation date: 04/1947
Control tower: no
ARTCC: KANSAS CITY CENTER
FSS: MC ALESTER FLIGHT SERVICE STATION
NOTAMs facility: MLC (NOTAM-D service available)
Attendance: UNATNDD
Wind indicator: lighted
Segmented circle: yes
Lights: ACTVT MIRL RY 17/35 - CTAF.
Beacon: white-green (lighted land airport)
Operates sunset to sunrise.

Airport Communications

CTAF: 122.9
WX AWOS-3 at OWP (20 nm SE): 118.325 (918-246-2635)

Nearby radio navigation aids

VOR radial/distance  VOR name  Freq  Var
BVOr209/29.4BARTLESVILLE VOR/DME117.9008E
TULr289/32.5TULSA VORTAC114.4008E
SWOr062/36.0STILLWATER VOR/DME108.4007E

 
NDB name  Hdg/Dist  Freq  Var  ID
WILLIAM POGUE319/19.736206EOWP --- .-- .--.
CUSHING024/38.124205ECUH -.-. ..- ....

Airport Services

Fuel available: 100LL
FUEL AVBL 24 HRS SELF SERVICE WITH CREDIT CARD.
Parking: tiedowns
Airframe service: NONE
Powerplant service: NONE
Bottled oxygen: NONE
Bulk oxygen: NONE

Runway Information

Runway 17/35

Dimensions: 3210 x 60 ft. / 978 x 18 m
Surface: asphalt, in fair condition
Weight bearing capacity: 
Single wheel: 8.0
Runway edge lights: medium intensity
RUNWAY 17  RUNWAY 35
Latitude: 36-26.829500N36-26.300500N
Longitude: 096-23.233500W096-23.233500W
Elevation: 819.0 ft.820.0 ft.
Gradient: 0.2%0.2%
Traffic pattern: leftleft
Runway heading: 174 magnetic, 180 true354 magnetic, 000 true
Displaced threshold: 180 ft.180 ft.
Markings: basic, in fair conditionbasic, in fair condition
Visual slope indicator: 4-light PAPI on left4-light PAPI on left
Obstructions: 15 ft. trees, 430 ft. from runway, 15:1 slope to clear13 ft. trees, 240 ft. from runway, 120 ft. right of centerline, 3:1 slope to clear

Airport Ownership and Management from official FAA records

Ownership: Publicly-owned
Owner: CITY OF HOMINY
219 W. 1ST ST., PO BOX 219
HOMINY, OK 74035
Phone 918-885-2164
Manager: DANI MULLINS
219 W. 1ST ST., PO BOX 219
HOMINY, OK 74035
Phone 918-885-2164
CITY CLERK.

Airport Operational Statistics

Aircraft based on the field: 3
Single engine airplanes: 1
Ultralights: 2
    
Aircraft operations: avg 33/month *
100% transient general aviation
* for 12-month period ending 10 May 2016

Additional Remarks

ULTRALIGHT ACTIVITY ON & INVOF ARPT.

Instrument Procedures

There are no published instrument procedures at H92.

Some nearby airports with instrument procedures:

KOWP - William R Pogue Municipal Airport (20 nm SE)
KBVO - Bartlesville Municipal Airport (26 nm NE)
KTUL - Tulsa International Airport (28 nm SE)
KRVS - Richard Lloyd Jones Jr Airport (31 nm SE)
KCUH - Cushing Municipal Airport (35 nm SW)
 
Loc | Ops | Rwys | IFR | FBO | Links
Com | Nav | Svcs | Stats | Notes
Area around H92 (Hominy Municipal Airport)
 
Road maps at: MapQuest Bing Google
 
Aerial photo
WARNING: Photo may not be current or correct
Aerial photo of H92 (Hominy Municipal Airport)
Photo by David Heon
Taken in September 2016
looking west

Do you have a better or more recent aerial photo of Hominy Municipal Airport that you would like to share? If so, please send us your photo.

 
Sectional chart

 
Airport distance calculator
Flying to Hominy Municipal Airport? Find the distance to fly.

From to H92

Sunrise and sunset
Times for 20-Mar-2019
 Local
(UTC-5)
 Zulu
(UTC)
Morning civil twilight07:0412:04
Sunrise07:3012:30
Sunset19:3600:36
Evening civil twilight20:0201:02

Current date and time
Zulu (UTC)  20-Mar-2019 22:52:38
Local (UTC-5)  20-Mar-2019 17:52:38
 
METAR
KOWP 
20nm SE 
202235Z AUTO 29007G15KT 10SM CLR 17/M01 A3015 RMK AO2 T01711011 PWINO
KBVO 
26nm NE 
202153Z AUTO 30007G17KT 10SM CLR 17/M01 A3015 RMK AO2 SLP205 T01671006
KTUL 
28nm SE 
202153Z 30013G23KT 10SM FEW070 17/00 A3015 RMK AO2 SLP208 T01670000
KRVS 
31nm SE 
202153Z 32007G15KT 260V350 10SM CLR 17/M01 A3015 RMK AO2 SLP213 T01671006
KCUH 
35nm SW 
202235Z AUTO 30010KT 10SM CLR 16/M01 A3016 RMK AO2 T01561008
KSWO 
38nm SW 
202153Z 29010G18KT 10SM CLR 17/M01 A3017 RMK AO2 SLP213 T01671011
KPNC 
39nm NW 
202153Z AUTO 26012G16KT 10SM CLR 16/M01 A3015 RMK AO2 SLP207 T01611006
TAF
KBVO 
26nm NE 
201720Z 2018/2118 31007KT P6SM BKN040 TEMPO 2018/2022 BKN025 FM210000 VRB03KT P6SM SCT250
KTUL 
28nm SE 
201720Z 2018/2118 31010KT P6SM BKN040 TEMPO 2018/2022 BKN025 FM210000 VRB03KT P6SM SKC FM211400 36008KT P6SM SKC
KRVS 
31nm SE 
201720Z 2018/2118 31007KT P6SM BKN040 TEMPO 2018/2022 BKN025 FM211000 VRB03KT P6SM SKC FM211500 36008KT P6SM SKC
NOTAMs
Click for the latest NOTAMs
NOTAMs are issued by the DoD/FAA and will open in a separate window not controlled by AirNav.

 

 
 

FBO, Fuel Providers, and Aircraft Ground Support

  
 Business Name 
 
 Contact 
 
 Services / Description 
 
Fuel Prices
 
Comments
  
City of Hominy 918-885-2164
no information available

If you are affiliated with City of Hominy and would like to show here your services, contact info, web link, logo, and more, click here
100LL
SS $4.85 
 Updated 07-Mar-2019
 
   2 read write
SS=Self service
Update Fuel Prices
 

Would you like to see your business listed on this page?

 If your business provides an interesting product or service to pilots, flight crews, aircraft, or users of the Hominy Municipal Airport, you should consider listing it here.  To start the listing process, click on the button below
 
Add a business
 

Other Pages about Hominy Municipal Airport

Update a link
 
Copyright © AirNav, LLC. All rights reserved. Privacy Policy  Contact